Location: Croagnes
(43.9363°N, 5.3265°E)
Time: 17:46:59
(UTC+00:00)

Cosmos 1758 - Pass Details

Date: 06 June 2020
Orbit: 540 x 562 km, 82.5° (Epoch: 12 July)

Event Time Altitude Azimuth Distance (km) Brightness Sun altitude
Rises 21:59:00 0° 345° (NNW) 2,753 8.4 -19.6°
Reaches altitude 10° 22:01:14 10° 340° (NNW) 1,855 7.2 -19.7°
Maximum altitude 22:05:09 46° 267° (W) 756 4.1 -20.0°
Enters shadow 22:06:23 34° 219° (SW) 927 4.2 -20.1°
